| time (UTC) | temp F | wind direction | speed MPH | gust MPH | rain 1hr in | rain 24hr in | rain mn in | humidity % | barometer mb |
| 20260903133058 | 75 | 23 | 4.0 | 13.0 | 0.00 | 0.01 | 0.00 | 100 | 1014.1 |
| 20260903132534 | 75 | 22 | 5.0 | 8.0 | 0.00 | 0.01 | 0.00 | 100 | 1014.1 |
| 20260903132034 | 75 | 350 | 1.0 | 3.0 | 0.00 | 0.01 | 0.00 | 100 | 1013.5 |
| 20260903131608 | 75 | 0 | 0.0 | 2.0 | 0.00 | 0.01 | 0.00 | 100 | 1012.9 |
| 20260903131033 | 75 | 0 | 0.0 | 2.0 | 0.00 | 0.01 | 0.00 | 100 | 1012.8 |
| 20260903130535 | 75 | 265 | 0.0 | 3.0 | 0.00 | 0.01 | 0.00 | 100 | 1012.8 |
| 20260903130112 | 75 | 265 | 0.0 | 3.0 | 0.00 | 0.01 | 0.00 | 100 | 1012.6 |
| 20260903125534 | 75 | 0 | 0.0 | 2.0 | 0.00 | 0.01 | 0.00 | 100 | 1012.5 |
| 20260903125034 | 74 | 0 | 0.0 | 1.0 | 0.00 | 0.01 | 0.00 | 100 | 1012.5 |
| 20260903124549 | 74 | 0 | 0.0 | 1.0 | 0.00 | 0.01 | 0.00 | 100 | 1012.4 |
| 20260903124034 | 73 | 0 | 0.0 | 0.0 | 0.00 | 0.01 | 0.00 | 100 | 1012.5 |
| 20260903123535 | 73 | 0 | 0.0 | 0.0 | 0.00 | 0.01 | 0.00 | 100 | 1012.5 |
| 20260903123057 | 72 | 0 | 0.0 | 0.0 | 0.00 | 0.01 | 0.00 | 100 | 1012.4 |
| 20260903122534 | 72 | 0 | 0.0 | 0.0 | 0.00 | 0.01 | 0.00 | 100 | 1012.4 |
| 20260903122034 | 71 | 0 | 0.0 | 0.0 | 0.00 | 0.01 | 0.00 | 100 | 1012.6 |
| 20260903121555 | 71 | 0 | 0.0 | 0.0 | 0.00 | 0.01 | 0.00 | 100 | 1012.6 |
| 20260903121035 | 71 | 0 | 0.0 | 0.0 | 0.00 | 0.01 | 0.00 | 100 | 1012.5 |
| 20260903120538 | 70 | 0 | 0.0 | 0.0 | 0.00 | 0.01 | 0.00 | 100 | 1012.6 |
| 20260903120052 | 70 | 0 | 0.0 | 0.0 | 0.00 | 0.01 | 0.00 | 100 | 1012.7 |
| 20260903115534 | 70 | 0 | 0.0 | 0.0 | 0.00 | 0.01 | 0.00 | 100 | 1012.6 |
| 20260903115035 | 70 | 0 | 0.0 | 0.0 | 0.00 | 0.01 | 0.00 | 100 | 1012.8 |
| 20260903114603 | 70 | 0 | 0.0 | 0.0 | 0.00 | 0.01 | 0.00 | 100 | 1012.6 |
| 20260903114034 | 70 | 0 | 0.0 | 0.0 | 0.00 | 0.01 | 0.00 | 100 | 1012.6 |
| 20260903113536 | 70 | 0 | 0.0 | 0.0 | 0.00 | 0.01 | 0.00 | 100 | 1012.6 |
| 20260903113056 | 70 | 0 | 0.0 | 0.0 | 0.00 | 0.01 | 0.00 | 100 | 1012.7 |
| 20260903112534 | 70 | 0 | 0.0 | 0.0 | 0.00 | 0.01 | 0.00 | 100 | 1012.6 |
| 20260903112034 | 70 | 0 | 0.0 | 0.0 | 0.00 | 0.01 | 0.00 | 100 | 1012.7 |
| 20260903111603 | 70 | 0 | 0.0 | 0.0 | 0.00 | 0.01 | 0.00 | 100 | 1012.6 |
| 20260903111035 | 70 | 0 | 0.0 | 0.0 | 0.00 | 0.01 | 0.00 | 100 | 1012.7 |
| 20260903110534 | 70 | 0 | 0.0 | 0.0 | 0.00 | 0.01 | 0.00 | 100 | 1012.7 |
| 20260903110104 | 70 | 0 | 0.0 | 0.0 | 0.00 | 0.01 | 0.00 | 100 | 1012.7 |
| 20260903105534 | 70 | 0 | 0.0 | 0.0 | 0.00 | 0.01 | 0.00 | 100 | 1012.6 |
| 20260903105034 | 70 | 0 | 0.0 | 0.0 | 0.00 | 0.01 | 0.00 | 100 | 1012.6 |
| 20260903104603 | 70 | 0 | 0.0 | 0.0 | 0.00 | 0.01 | 0.00 | 100 | 1012.7 |
| 20260903104033 | 70 | 0 | 0.0 | 0.0 | 0.00 | 0.01 | 0.00 | 100 | 1012.6 |
| 20260903103534 | 70 | 0 | 0.0 | 0.0 | 0.00 | 0.01 | 0.00 | 100 | 1012.5 |
| 20260903103059 | 70 | 0 | 0.0 | 0.0 | 0.00 | 0.01 | 0.00 | 100 | 1012.5 |
| 20260903102537 | 70 | 0 | 0.0 | 0.0 | 0.00 | 0.01 | 0.00 | 100 | 1012.5 |
| 20260903102035 | 70 | 0 | 0.0 | 0.0 | 0.00 | 0.01 | 0.00 | 100 | 1012.6 |
| 20260903101557 | 70 | 0 | 0.0 | 0.0 | 0.00 | 0.01 | 0.00 | 100 | 1012.5 |
| 20260903101034 | 71 | 0 | 0.0 | 0.0 | 0.00 | 0.01 | 0.00 | 100 | 1012.5 |
| 20260903100535 | 71 | 0 | 0.0 | 0.0 | 0.00 | 0.01 | 0.00 | 100 | 1012.5 |
| 20260903100054 | 71 | 0 | 0.0 | 0.0 | 0.00 | 0.01 | 0.00 | 100 | 1012.5 |
| 20260903095534 | 71 | 0 | 0.0 | 0.0 | 0.00 | 0.01 | 0.00 | 100 | 1012.6 |
| 20260903095034 | 71 | 0 | 0.0 | 0.0 | 0.00 | 0.01 | 0.00 | 100 | 1012.5 |
| 20260903094606 | 71 | 0 | 0.0 | 0.0 | 0.00 | 0.01 | 0.00 | 100 | 1012.8 |
| 20260903094034 | 71 | 0 | 0.0 | 0.0 | 0.00 | 0.01 | 0.00 | 100 | 1012.7 |
| 20260903093533 | 71 | 0 | 0.0 | 0.0 | 0.00 | 0.01 | 0.00 | 100 | 1012.8 |
| 20260903093107 | 71 | 0 | 0.0 | 0.0 | 0.00 | 0.01 | 0.00 | 100 | 1012.7 |
| 20260903092538 | 71 | 0 | 0.0 | 0.0 | 0.00 | 0.01 | 0.00 | 100 | 1012.7 |
| 20260903092034 | 71 | 0 | 0.0 | 0.0 | 0.00 | 0.01 | 0.00 | 100 | 1012.8 |
| 20260903091554 | 71 | 0 | 0.0 | 0.0 | 0.00 | 0.01 | 0.00 | 100 | 1012.7 |
| 20260903091034 | 71 | 0 | 0.0 | 0.0 | 0.00 | 0.01 | 0.00 | 100 | 1012.7 |
| 20260903090534 | 71 | 0 | 0.0 | 0.0 | 0.00 | 0.01 | 0.00 | 100 | 1012.6 |
| 20260903090100 | 71 | 0 | 0.0 | 0.0 | 0.00 | 0.01 | 0.00 | 100 | 1012.5 |
| 20260903085534 | 71 | 0 | 0.0 | 0.0 | 0.00 | 0.01 | 0.00 | 100 | 1012.6 |
| 20260903085034 | 71 | 0 | 0.0 | 0.0 | 0.00 | 0.01 | 0.00 | 100 | 1012.5 |
| 20260903084557 | 71 | 0 | 0.0 | 0.0 | 0.00 | 0.01 | 0.00 | 100 | 1012.5 |
| 20260903084034 | 71 | 0 | 0.0 | 0.0 | 0.00 | 0.01 | 0.00 | 100 | 1012.5 |
| 20260903083533 | 71 | 0 | 0.0 | 0.0 | 0.00 | 0.01 | 0.00 | 100 | 1012.5 |
| 20260903083056 | 72 | 0 | 0.0 | 0.0 | 0.00 | 0.01 | 0.00 | 100 | 1012.6 |
| 20260903082538 | 72 | 0 | 0.0 | 0.0 | 0.00 | 0.01 | 0.00 | 100 | 1012.5 |
| 20260903082036 | 71 | 0 | 0.0 | 0.0 | 0.00 | 0.01 | 0.00 | 100 | 1012.7 |
| 20260903081553 | 71 | 0 | 0.0 | 0.0 | 0.00 | 0.01 | 0.00 | 100 | 1012.7 |
| 20260903081034 | 72 | 0 | 0.0 | 0.0 | 0.00 | 0.01 | 0.00 | 100 | 1012.6 |
| 20260903080536 | 72 | 0 | 0.0 | 0.0 | 0.00 | 0.01 | 0.00 | 100 | 1012.6 |
| 20260903080055 | 72 | 0 | 0.0 | 0.0 | 0.00 | 0.01 | 0.00 | 100 | 1012.5 |
| 20260903075534 | 72 | 0 | 0.0 | 0.0 | 0.00 | 0.01 | 0.00 | 100 | 1012.5 |
| 20260903075034 | 72 | 0 | 0.0 | 0.0 | 0.00 | 0.01 | 0.00 | 100 | 1012.7 |
| 20260903074556 | 72 | 0 | 0.0 | 0.0 | 0.00 | 0.01 | 0.00 | 100 | 1012.6 |
| 20260903074035 | 72 | 0 | 0.0 | 0.0 | 0.00 | 0.01 | 0.00 | 100 | 1012.5 |
| 20260903073534 | 72 | 0 | 0.0 | 0.0 | 0.00 | 0.01 | 0.00 | 100 | 1012.5 |
| 20260903073055 | 72 | 0 | 0.0 | 0.0 | 0.00 | 0.01 | 0.00 | 100 | 1012.5 |
| 20260903072534 | 72 | 0 | 0.0 | 0.0 | 0.00 | 0.01 | 0.00 | 100 | 1012.5 |
| 20260903072035 | 72 | 0 | 0.0 | 0.0 | 0.00 | 0.01 | 0.00 | 100 | 1012.5 |
| 20260903071555 | 72 | 0 | 0.0 | 0.0 | 0.00 | 0.01 | 0.00 | 100 | 1012.5 |
| 20260903071034 | 72 | 0 | 0.0 | 0.0 | 0.00 | 0.01 | 0.00 | 100 | 1012.5 |
| 20260903070534 | 72 | 0 | 0.0 | 0.0 | 0.00 | 0.01 | 0.00 | 100 | 1012.5 |
| 20260903070052 | 72 | 0 | 0.0 | 0.0 | 0.00 | 0.01 | 0.00 | 100 | 1012.6 |
| 20260903065535 | 72 | 0 | 0.0 | 0.0 | 0.00 | 0.01 | 0.00 | 100 | 1012.7 |
| 20260903065034 | 72 | 0 | 0.0 | 0.0 | 0.00 | 0.01 | 0.00 | 100 | 1012.7 |
| 20260903064555 | 72 | 0 | 0.0 | 0.0 | 0.00 | 0.01 | 0.00 | 100 | 1012.7 |
| 20260903064034 | 72 | 0 | 0.0 | 0.0 | 0.00 | 0.01 | 0.00 | 100 | 1012.7 |
| 20260903063534 | 72 | 0 | 0.0 | 0.0 | 0.00 | 0.01 | 0.00 | 100 | 1012.8 |
| 20260903063055 | 72 | 0 | 0.0 | 0.0 | 0.00 | 0.01 | 0.00 | 100 | 1012.8 |
| 20260903062536 | 72 | 0 | 0.0 | 0.0 | 0.00 | 0.01 | 0.00 | 100 | 1013.0 |
| 20260903062034 | 72 | 0 | 0.0 | 0.0 | 0.00 | 0.01 | 0.00 | 100 | 1013.1 |
| 20260903061559 | 72 | 0 | 0.0 | 0.0 | 0.00 | 0.01 | 0.00 | 100 | 1012.9 |
| 20260903061034 | 72 | 0 | 0.0 | 0.0 | 0.00 | 0.01 | 0.00 | 100 | 1012.9 |
| 20260903060534 | 72 | 0 | 0.0 | 0.0 | 0.00 | 0.01 | 0.00 | 100 | 1012.9 |
| 20260903060100 | 72 | 0 | 0.0 | 0.0 | 0.00 | 0.01 | 0.00 | 100 | 1013.0 |
| 20260903055535 | 72 | 0 | 0.0 | 0.0 | 0.00 | 0.01 | 0.00 | 100 | 1012.9 |
| 20260903055037 | 72 | 0 | 0.0 | 0.0 | 0.00 | 0.01 | 0.00 | 100 | 1013.0 |
| 20260903054557 | 72 | 0 | 0.0 | 0.0 | 0.00 | 0.01 | 0.00 | 100 | 1012.8 |
| 20260903054036 | 72 | 0 | 0.0 | 0.0 | 0.00 | 0.01 | 0.00 | 100 | 1012.8 |
| 20260903053536 | 72 | 0 | 0.0 | 0.0 | 0.00 | 0.01 | 0.00 | 100 | 1012.9 |
| 20260903053054 | 72 | 0 | 0.0 | 0.0 | 0.00 | 0.01 | 0.00 | 100 | 1012.9 |
| 20260903052537 | 72 | 0 | 0.0 | 0.0 | 0.00 | 0.01 | 0.00 | 100 | 1012.8 |
| 20260903052035 | 72 | 0 | 0.0 | 0.0 | 0.00 | 0.01 | 0.00 | 100 | 1013.0 |
| 20260903051606 | 72 | 0 | 0.0 | 0.0 | 0.00 | 0.01 | 0.00 | 100 | 1013.0 |
| 20260903051035 | 73 | 0 | 0.0 | 0.0 | 0.00 | 0.01 | 0.00 | 100 | 1012.9 |
| 20260903050539 | 73 | 0 | 0.0 | 0.0 | 0.00 | 0.01 | 0.00 | 100 | 1013.0 |
| 20260903045535 | 73 | 0 | 0.0 | 0.0 | 0.00 | 0.01 | 0.01 | 100 | 1013.0 |
| 20260903045041 | 73 | 0 | 0.0 | 0.0 | 0.00 | 0.01 | 0.01 | 100 | 1013.0 |
| 20260903044554 | 73 | 0 | 0.0 | 0.0 | 0.00 | 0.01 | 0.01 | 100 | 1013.0 |
| 20260903044037 | 73 | 0 | 0.0 | 0.0 | 0.00 | 0.01 | 0.01 | 100 | 1013.0 |
| 20260903043534 | 73 | 0 | 0.0 | 0.0 | 0.00 | 0.01 | 0.01 | 100 | 1013.0 |
| 20260903043103 | 73 | 0 | 0.0 | 0.0 | 0.00 | 0.01 | 0.01 | 100 | 1013.0 |
| 20260903042534 | 73 | 0 | 0.0 | 0.0 | 0.00 | 0.01 | 0.01 | 99 | 1012.8 |
| 20260903042037 | 73 | 0 | 0.0 | 0.0 | 0.00 | 0.01 | 0.01 | 100 | 1012.7 |
| 20260903041602 | 73 | 0 | 0.0 | 0.0 | 0.00 | 0.01 | 0.01 | 100 | 1012.6 |
| 20260903041034 | 73 | 0 | 0.0 | 0.0 | 0.00 | 0.01 | 0.01 | 99 | 1012.5 |
| 20260903040534 | 73 | 0 | 0.0 | 0.0 | 0.00 | 0.01 | 0.01 | 100 | 1012.6 |
| 20260903040056 | 73 | 0 | 0.0 | 0.0 | 0.00 | 0.01 | 0.01 | 99 | 1012.7 |
| 20260903035536 | 74 | 0 | 0.0 | 0.0 | 0.00 | 0.01 | 0.01 | 100 | 1012.5 |
| 20260903035034 | 74 | 0 | 0.0 | 0.0 | 0.00 | 0.01 | 0.01 | 100 | 1012.6 |
| 20260903034603 | 74 | 0 | 0.0 | 0.0 | 0.00 | 0.01 | 0.01 | 99 | 1012.6 |
| 20260903034037 | 74 | 0 | 0.0 | 0.0 | 0.00 | 0.01 | 0.01 | 99 | 1012.7 |
| 20260903033536 | 74 | 0 | 0.0 | 0.0 | 0.00 | 0.01 | 0.01 | 99 | 1012.6 |
| 20260903033058 | 74 | 0 | 0.0 | 0.0 | 0.00 | 0.01 | 0.01 | 99 | 1012.6 |
| 20260903032535 | 74 | 0 | 0.0 | 0.0 | 0.00 | 0.01 | 0.01 | 99 | 1012.7 |
| 20260903032037 | 74 | 0 | 0.0 | 0.0 | 0.00 | 0.01 | 0.01 | 99 | 1012.7 |
| 20260903031633 | 74 | 0 | 0.0 | 0.0 | 0.00 | 0.01 | 0.01 | 99 | 1012.7 |
| 20260903031034 | 74 | 0 | 0.0 | 0.0 | 0.00 | 0.01 | 0.01 | 99 | 1012.6 |
| 20260903030534 | 74 | 0 | 0.0 | 0.0 | 0.00 | 0.01 | 0.01 | 99 | 1012.7 |
| 20260903030054 | 75 | 0 | 0.0 | 0.0 | 0.00 | 0.01 | 0.01 | 99 | 1012.7 |
| 20260903025537 | 75 | 0 | 0.0 | 0.0 | 0.00 | 0.01 | 0.01 | 99 | 1012.6 |
| 20260903025033 | 75 | 0 | 0.0 | 0.0 | 0.00 | 0.01 | 0.01 | 99 | 1012.7 |
| 20260903024554 | 75 | 0 | 0.0 | 0.0 | 0.00 | 0.01 | 0.01 | 99 | 1012.7 |
| 20260903024035 | 75 | 0 | 0.0 | 0.0 | 0.00 | 0.01 | 0.01 | 99 | 1012.7 |
| 20260903023538 | 75 | 0 | 0.0 | 0.0 | 0.00 | 0.01 | 0.01 | 99 | 1012.8 |
| 20260903023120 | 75 | 0 | 0.0 | 0.0 | 0.00 | 0.01 | 0.01 | 99 | 1012.7 |
| 20260903022536 | 76 | 0 | 0.0 | 0.0 | 0.00 | 0.01 | 0.01 | 99 | 1012.6 |
| 20260903022035 | 76 | 0 | 0.0 | 0.0 | 0.00 | 0.01 | 0.01 | 99 | 1012.7 |
| 20260903021556 | 76 | 0 | 0.0 | 0.0 | 0.00 | 0.01 | 0.01 | 98 | 1012.7 |
| 20260903021034 | 76 | 0 | 0.0 | 0.0 | 0.00 | 0.01 | 0.01 | 98 | 1012.6 |
| 20260903020540 | 76 | 0 | 0.0 | 0.0 | 0.00 | 0.01 | 0.01 | 98 | 1012.6 |
| 20260903020059 | 76 | 0 | 0.0 | 0.0 | 0.00 | 0.01 | 0.01 | 98 | 1012.4 |
| 20260903015539 | 76 | 0 | 0.0 | 0.0 | 0.00 | 0.01 | 0.01 | 98 | 1012.3 |
| 20260903015036 | 76 | 0 | 0.0 | 0.0 | 0.00 | 0.01 | 0.01 | 98 | 1012.4 |
| 20260903014601 | 76 | 0 | 0.0 | 0.0 | 0.00 | 0.01 | 0.01 | 98 | 1012.3 |
| 20260903014035 | 77 | 0 | 0.0 | 0.0 | 0.00 | 0.01 | 0.01 | 97 | 1012.4 |
| 20260903013536 | 77 | 0 | 0.0 | 0.0 | 0.00 | 0.01 | 0.01 | 97 | 1012.3 |
| 20260903013054 | 77 | 0 | 0.0 | 0.0 | 0.00 | 0.01 | 0.01 | 97 | 1012.3 |
| 20260903012535 | 77 | 0 | 0.0 | 0.0 | 0.00 | 0.01 | 0.01 | 97 | 1012.3 |
| 20260903012040 | 77 | 0 | 0.0 | 0.0 | 0.00 | 0.01 | 0.01 | 96 | 1012.0 |
| 20260903011602 | 78 | 0 | 0.0 | 0.0 | 0.00 | 0.01 | 0.01 | 96 | 1012.0 |
| 20260903011037 | 78 | 0 | 0.0 | 0.0 | 0.00 | 0.01 | 0.01 | 96 | 1012.0 |
| 20260903010535 | 78 | 0 | 0.0 | 0.0 | 0.00 | 0.01 | 0.01 | 95 | 1012.0 |
| 20260903010055 | 79 | 0 | 0.0 | 1.0 | 0.00 | 0.01 | 0.01 | 95 | 1011.9 |
| 20260903005535 | 79 | 0 | 0.0 | 1.0 | 0.00 | 0.01 | 0.01 | 95 | 1011.8 |
| 20260903005035 | 79 | 0 | 0.0 | 0.0 | 0.00 | 0.01 | 0.01 | 94 | 1011.7 |
| 20260903004555 | 80 | 0 | 0.0 | 0.0 | 0.00 | 0.01 | 0.01 | 94 | 1011.8 |
| 20260903004034 | 80 | 0 | 0.0 | 0.0 | 0.00 | 0.01 | 0.01 | 93 | 1011.7 |
| 20260903003535 | 81 | 0 | 0.0 | 0.0 | 0.00 | 0.01 | 0.01 | 92 | 1011.8 |
| 20260903003051 | 81 | 0 | 0.0 | 0.0 | 0.00 | 0.01 | 0.01 | 92 | 1011.9 |
| 20260903002534 | 82 | 0 | 0.0 | 0.0 | 0.00 | 0.01 | 0.01 | 92 | 1011.8 |
| 20260903002034 | 82 | 0 | 0.0 | 0.0 | 0.00 | 0.01 | 0.01 | 91 | 1011.7 |
| 20260903001559 | 83 | 0 | 0.0 | 0.0 | 0.00 | 0.01 | 0.01 | 91 | 1011.8 |
| 20260903001129 | 84 | 0 | 0.0 | 0.0 | 0.00 | 0.01 | 0.01 | 90 | 1011.9 |
| 20260903000535 | 84 | 0 | 0.0 | 0.0 | 0.00 | 0.01 | 0.01 | 89 | 1011.9 |
| 20260903000054 | 85 | 0 | 0.0 | 0.0 | 0.00 | 0.01 | 0.01 | 89 | 1011.8 |
| 20260902235535 | 85 | 0 | 0.0 | 0.0 | 0.00 | 0.01 | 0.01 | 88 | 1011.9 |
| 20260902235035 | 85 | 0 | 0.0 | 2.0 | 0.00 | 0.01 | 0.01 | 87 | 1011.9 |
| 20260902234608 | 85 | 0 | 0.0 | 2.0 | 0.00 | 0.01 | 0.01 | 88 | 1011.9 |
| 20260902234037 | 85 | 0 | 0.0 | 2.0 | 0.00 | 0.01 | 0.01 | 88 | 1012.0 |
| 20260902233535 | 85 | 0 | 0.0 | 0.0 | 0.00 | 0.01 | 0.01 | 89 | 1012.0 |
| 20260902233057 | 85 | 0 | 0.0 | 0.0 | 0.00 | 0.01 | 0.01 | 91 | 1012.0 |
| 20260902232536 | 85 | 0 | 0.0 | 0.0 | 0.00 | 0.01 | 0.01 | 92 | 1012.0 |
| 20260902232034 | 85 | 0 | 0.0 | 0.0 | 0.00 | 0.01 | 0.01 | 91 | 1012.0 |
| 20260902231600 | 85 | 0 | 0.0 | 0.0 | 0.00 | 0.01 | 0.01 | 91 | 1011.8 |
| 20260902231034 | 84 | 0 | 0.0 | 0.0 | 0.00 | 0.01 | 0.01 | 91 | 1011.9 |
| 20260902230537 | 84 | 0 | 0.0 | 0.0 | 0.00 | 0.01 | 0.01 | 91 | 1011.9 |
| 20260902230054 | 84 | 0 | 0.0 | 0.0 | 0.00 | 0.01 | 0.01 | 90 | 1011.8 |
| 20260902225536 | 84 | 0 | 0.0 | 0.0 | 0.00 | 0.01 | 0.01 | 91 | 1011.9 |
| 20260902225038 | 84 | 0 | 0.0 | 0.0 | 0.00 | 0.01 | 0.01 | 91 | 1011.8 |
| 20260902224552 | 85 | 0 | 0.0 | 1.0 | 0.00 | 0.01 | 0.01 | 90 | 1012.0 |
| 20260902224035 | 85 | 0 | 0.0 | 1.0 | 0.00 | 0.01 | 0.01 | 89 | 1011.9 |
| 20260902223535 | 85 | 0 | 0.0 | 1.0 | 0.00 | 0.01 | 0.01 | 90 | 1012.0 |
| 20260902223105 | 86 | 0 | 0.0 | 0.0 | 0.00 | 0.01 | 0.01 | 89 | 1012.1 |
| 20260902222535 | 86 | 0 | 0.0 | 0.0 | 0.00 | 0.01 | 0.01 | 87 | 1012.0 |
| 20260902222036 | 86 | 0 | 0.0 | 2.0 | 0.00 | 0.01 | 0.01 | 87 | 1012.0 |
| 20260902221600 | 86 | 0 | 0.0 | 4.0 | 0.00 | 0.01 | 0.01 | 86 | 1012.2 |
| 20260902221037 | 86 | 0 | 0.0 | 4.0 | 0.00 | 0.01 | 0.01 | 85 | 1012.3 |
| 20260902220536 | 87 | 258 | 0.0 | 2.0 | 0.00 | 0.01 | 0.01 | 84 | 1012.2 |
| 20260902220057 | 87 | 0 | 0.0 | 0.0 | 0.00 | 0.01 | 0.01 | 84 | 1012.1 |
| 20260902215538 | 87 | 0 | 0.0 | 2.0 | 0.00 | 0.01 | 0.01 | 85 | 1011.9 |
| 20260902215035 | 87 | 0 | 0.0 | 2.0 | 0.00 | 0.01 | 0.01 | 85 | 1012.0 |
| 20260902214555 | 87 | 0 | 0.0 | 2.0 | 0.00 | 0.01 | 0.01 | 83 | 1012.0 |
| 20260902214036 | 87 | 0 | 0.0 | 1.0 | 0.00 | 0.01 | 0.01 | 84 | 1012.0 |
| 20260902213536 | 87 | 0 | 0.0 | 1.0 | 0.00 | 0.01 | 0.01 | 84 | 1012.1 |
| 20260902213051 | 87 | 0 | 0.0 | 3.0 | 0.00 | 0.01 | 0.01 | 82 | 1012.1 |
| 20260902212537 | 87 | 0 | 0.0 | 4.0 | 0.00 | 0.01 | 0.01 | 82 | 1012.2 |
| 20260902212038 | 87 | 0 | 0.0 | 4.0 | 0.00 | 0.01 | 0.01 | 81 | 1012.3 |
| 20260902211556 | 88 | 0 | 0.0 | 3.0 | 0.00 | 0.01 | 0.01 | 81 | 1012.2 |
| 20260902211037 | 88 | 255 | 0.0 | 2.0 | 0.00 | 0.01 | 0.01 | 81 | 1012.0 |
| 20260902210537 | 88 | 0 | 0.0 | 3.0 | 0.00 | 0.01 | 0.01 | 81 | 1012.1 |
| 20260902210058 | 88 | 0 | 0.0 | 3.0 | 0.00 | 0.01 | 0.01 | 82 | 1012.2 |
| 20260902205537 | 88 | 256 | 0.0 | 3.0 | 0.00 | 0.01 | 0.01 | 81 | 1012.4 |
| 20260902205037 | 88 | 0 | 0.0 | 2.0 | 0.00 | 0.01 | 0.01 | 81 | 1012.3 |
| 20260902204554 | 88 | 0 | 0.0 | 3.0 | 0.00 | 0.01 | 0.01 | 80 | 1012.3 |
| 20260902204036 | 88 | 0 | 0.0 | 4.0 | 0.00 | 0.01 | 0.01 | 79 | 1012.3 |
| 20260902203535 | 88 | 296 | 0.0 | 4.0 | 0.00 | 0.01 | 0.01 | 78 | 1012.2 |
| 20260902203051 | 88 | 306 | 1.0 | 4.0 | 0.00 | 0.01 | 0.01 | 79 | 1012.2 |
| 20260902202538 | 88 | 276 | 0.0 | 4.0 | 0.00 | 0.01 | 0.01 | 77 | 1012.2 |
| 20260902202035 | 88 | 219 | 1.0 | 5.0 | 0.00 | 0.01 | 0.01 | 76 | 1012.1 |
| 20260902201605 | 88 | 221 | 0.0 | 7.0 | 0.00 | 0.01 | 0.01 | 75 | 1012.4 |
| 20260902201037 | 88 | 202 | 1.0 | 8.0 | 0.00 | 0.01 | 0.01 | 75 | 1012.3 |
| 20260902200538 | 88 | 0 | 3.0 | 8.0 | 0.00 | 0.01 | 0.01 | 77 | 1012.3 |
| 20260902200107 | 88 | 199 | 2.0 | 6.0 | 0.00 | 0.01 | 0.01 | 78 | 1012.4 |
| 20260902195535 | 88 | 173 | 1.0 | 6.0 | 0.00 | 0.02 | 0.01 | 81 | 1012.4 |
| 20260902195038 | 87 | 0 | 0.0 | 6.0 | 0.00 | 0.02 | 0.01 | 79 | 1012.5 |
| 20260902194554 | 87 | 250 | 1.0 | 6.0 | 0.00 | 0.02 | 0.01 | 78 | 1012.5 |
| 20260902194034 | 87 | 184 | 2.0 | 8.0 | 0.00 | 0.02 | 0.01 | 78 | 1012.4 |
| 20260902193539 | 87 | 189 | 3.0 | 8.0 | 0.00 | 0.02 | 0.01 | 76 | 1012.4 |
| 20260902193054 | 88 | 217 | 1.0 | 7.0 | 0.00 | 0.02 | 0.01 | 76 | 1012.5 |
| 20260902192537 | 88 | 191 | 1.0 | 7.0 | 0.00 | 0.02 | 0.01 | 74 | 1012.4 |
| 20260902192037 | 88 | 0 | 1.0 | 9.0 | 0.00 | 0.02 | 0.01 | 76 | 1012.8 |
| 20260902191557 | 88 | 207 | 2.0 | 9.0 | 0.00 | 0.02 | 0.01 | 75 | 1012.8 |
| 20260902191035 | 88 | 189 | 3.0 | 8.0 | 0.00 | 0.02 | 0.01 | 74 | 1012.7 |
| 20260902190534 | 88 | 284 | 3.0 | 8.0 | 0.00 | 0.02 | 0.01 | 76 | 1012.7 |
| 20260902190057 | 88 | 250 | 3.0 | 9.0 | 0.00 | 0.02 | 0.01 | 77 | 1012.8 |
| 20260902185537 | 88 | 212 | 1.0 | 9.0 | 0.00 | 0.02 | 0.01 | 77 | 1012.7 |
| 20260902185037 | 88 | 236 | 2.0 | 6.0 | 0.00 | 0.02 | 0.01 | 76 | 1012.8 |
| 20260902184556 | 88 | 196 | 2.0 | 6.0 | 0.00 | 0.02 | 0.01 | 77 | 1012.8 |
| 20260902184036 | 88 | 266 | 1.0 | 6.0 | 0.00 | 0.02 | 0.01 | 79 | 1012.8 |
| 20260902183534 | 87 | 210 | 1.0 | 8.0 | 0.00 | 0.02 | 0.01 | 79 | 1012.8 |
| 20260902183052 | 87 | 0 | 3.0 | 8.0 | 0.00 | 0.02 | 0.01 | 79 | 1013.0 |
| 20260902182534 | 87 | 212 | 2.0 | 8.0 | 0.00 | 0.02 | 0.01 | 78 | 1012.9 |
| 20260902182036 | 87 | 222 | 2.0 | 7.0 | 0.00 | 0.02 | 0.01 | 79 | 1013.0 |
| 20260902181557 | 87 | 291 | 2.0 | 7.0 | 0.00 | 0.02 | 0.01 | 79 | 1013.0 |
| 20260902181036 | 86 | 261 | 1.0 | 7.0 | 0.00 | 0.02 | 0.01 | 80 | 1013.1 |
| 20260902180535 | 86 | 213 | 3.0 | 7.0 | 0.00 | 0.02 | 0.01 | 79 | 1013.1 |
| 20260902180055 | 86 | 206 | 0.0 | 7.0 | 0.00 | 0.02 | 0.01 | 80 | 1013.0 |
| 20260902175537 | 86 | 0 | 2.0 | 7.0 | 0.00 | 0.02 | 0.01 | 79 | 1013.1 |
| 20260902175040 | 86 | 0 | 1.0 | 7.0 | 0.00 | 0.02 | 0.01 | 80 | 1013.2 |
| 20260902174608 | 86 | 200 | 1.0 | 7.0 | 0.00 | 0.02 | 0.01 | 80 | 1013.4 |
| 20260902174037 | 86 | 200 | 2.0 | 7.0 | 0.00 | 0.02 | 0.01 | 79 | 1013.4 |
| 20260902173537 | 86 | 224 | 1.0 | 7.0 | 0.00 | 0.02 | 0.01 | 80 | 1013.3 |
| 20260902173057 | 86 | 186 | 1.0 | 6.0 | 0.00 | 0.02 | 0.01 | 79 | 1013.3 |
| 20260902172536 | 86 | 269 | 2.0 | 6.0 | 0.00 | 0.02 | 0.01 | 79 | 1013.4 |
| 20260902172037 | 86 | 0 | 2.0 | 5.0 | 0.00 | 0.02 | 0.01 | 81 | 1013.3 |
| 20260902171607 | 85 | 213 | 2.0 | 8.0 | 0.00 | 0.02 | 0.01 | 81 | 1013.3 |
| 20260902171036 | 85 | 275 | 2.0 | 8.0 | 0.00 | 0.02 | 0.01 | 82 | 1013.2 |
| 20260902170536 | 85 | 0 | 1.0 | 7.0 | 0.00 | 0.02 | 0.01 | 83 | 1013.5 |
| 20260902170053 | 84 | 219 | 2.0 | 7.0 | 0.00 | 0.02 | 0.01 | 83 | 1013.4 |
| 20260902165534 | 84 | 204 | 1.0 | 6.0 | 0.00 | 0.02 | 0.01 | 83 | 1013.4 |
| 20260902165034 | 84 | 229 | 1.0 | 4.0 | 0.00 | 0.02 | 0.01 | 85 | 1013.3 |
| 20260902164600 | 84 | 236 | 0.0 | 4.0 | 0.00 | 0.02 | 0.01 | 85 | 1013.4 |
| 20260902164038 | 84 | 0 | 1.0 | 4.0 | 0.01 | 0.02 | 0.01 | 86 | 1013.5 |
| 20260902163535 | 84 | 0 | 1.0 | 4.0 | 0.01 | 0.02 | 0.01 | 85 | 1013.6 |
| 20260902163055 | 83 | 185 | 1.0 | 4.0 | 0.01 | 0.02 | 0.01 | 86 | 1013.5 |
| 20260902162534 | 83 | 184 | 0.0 | 5.0 | 0.01 | 0.02 | 0.01 | 88 | 1013.6 |
| 20260902162036 | 83 | 184 | 2.0 | 5.0 | 0.01 | 0.02 | 0.01 | 87 | 1013.6 |
| 20260902161554 | 83 | 168 | 2.0 | 7.0 | 0.01 | 0.02 | 0.01 | 86 | 1013.4 |
| 20260902161037 | 83 | 0 | 2.0 | 7.0 | 0.01 | 0.02 | 0.01 | 86 | 1013.5 |
| 20260902160536 | 83 | 227 | 3.0 | 7.0 | 0.01 | 0.02 | 0.01 | 85 | 1013.3 |
| 20260902160115 | 83 | 108 | 0.0 | 8.0 | 0.01 | 0.02 | 0.01 | 86 | 1013.2 |
| 20260902155535 | 83 | 66 | 1.0 | 8.0 | 0.01 | 0.03 | 0.01 | 86 | 1013.2 |
| 20260902155037 | 83 | 115 | 2.0 | 8.0 | 0.01 | 0.03 | 0.01 | 86 | 1013.1 |
| 20260902154559 | 82 | 101 | 1.0 | 7.0 | 0.01 | 0.03 | 0.01 | 86 | 1013.3 |
| 20260902154037 | 82 | 94 | 1.0 | 6.0 | 0.00 | 0.02 | 0.00 | 88 | 1013.4 |
| 20260902153536 | 82 | 184 | 1.0 | 6.0 | 0.00 | 0.02 | 0.00 | 88 | 1013.4 |
| 20260902153056 | 81 | 142 | 0.0 | 3.0 | 0.00 | 0.02 | 0.00 | 89 | 1013.5 |
| 20260902152535 | 81 | 0 | 0.0 | 8.0 | 0.00 | 0.02 | 0.00 | 88 | 1013.4 |
| 20260902152034 | 80 | 0 | 1.0 | 8.0 | 0.00 | 0.02 | 0.00 | 86 | 1013.4 |
| 20260902151556 | 81 | 175 | 1.0 | 7.0 | 0.00 | 0.02 | 0.00 | 87 | 1013.5 |
| 20260902151038 | 81 | 171 | 3.0 | 6.0 | 0.00 | 0.02 | 0.00 | 86 | 1013.6 |
| 20260902150535 | 80 | 109 | 1.0 | 6.0 | 0.00 | 0.02 | 0.00 | 88 | 1013.5 |
| 20260902150052 | 80 | 0 | 1.0 | 8.0 | 0.00 | 0.02 | 0.00 | 88 | 1013.5 |
| 20260902145537 | 79 | 0 | 0.0 | 9.0 | 0.00 | 0.02 | 0.00 | 90 | 1013.7 |
| 20260902145035 | 79 | 112 | 2.0 | 9.0 | 0.00 | 0.02 | 0.00 | 89 | 1013.6 |
| 20260902144555 | 79 | 173 | 2.0 | 7.0 | 0.00 | 0.02 | 0.00 | 89 | 1013.8 |
| 20260902144034 | 79 | 0 | 0.0 | 6.0 | 0.00 | 0.02 | 0.00 | 90 | 1013.9 |
| 20260902143535 | 78 | 175 | 0.0 | 6.0 | 0.00 | 0.02 | 0.00 | 91 | 1013.9 |
| 20260902143054 | 78 | 104 | 1.0 | 6.0 | 0.00 | 0.02 | 0.00 | 91 | 1013.9 |
| 20260902142535 | 77 | 130 | 0.0 | 4.0 | 0.00 | 0.02 | 0.00 | 93 | 1013.8 |
| 20260902142035 | 77 | 155 | 0.0 | 4.0 | 0.00 | 0.02 | 0.00 | 95 | 1013.9 |
| 20260902141555 | 76 | 154 | 0.0 | 3.0 | 0.00 | 0.02 | 0.00 | 94 | 1014.1 |
| 20260902141035 | 75 | 0 | 0.0 | 3.0 | 0.00 | 0.02 | 0.00 | 94 | 1014.1 |
| 20260902140536 | 75 | 0 | 0.0 | 3.0 | 0.00 | 0.02 | 0.00 | 96 | 1014.2 |
| 20260902135534 | 75 | 0 | 0.0 | 0.0 | 0.00 | 0.02 | 0.00 | 97 | 1014.4 |
| 20260902135034 | 75 | 0 | 0.0 | 0.0 | 0.00 | 0.02 | 0.00 | 97 | 1014.6 |
| 20260902134556 | 74 | 0 | 0.0 | 0.0 | 0.00 | 0.02 | 0.00 | 98 | 1014.5 |
| 20260902134035 | 74 | 0 | 0.0 | 1.0 | 0.00 | 0.02 | 0.00 | 99 | 1014.5 |
| 20260902133535 | 74 | 0 | 0.0 | 4.0 | 0.00 | 0.02 | 0.00 | 99 | 1014.3 |